Salina, KS

8:55 PM CDT on August 28, 2016 (GMT -0500)
Salina Municipal

Weather History for KSLN - August, 2014

Change the Weather History Date:

Wednesday, August 27, 2014

  Actual Average Record
Temperature  
Mean Temperature 81 °F 78 °F  
Max Temperature 88 °F 89 °F 111 °F (1921)
Min Temperature 73 °F 66 °F 42 °F (1916)
Degree Days  
Heating Degree Days 0 0  
Month to date heating degree days 0 0  
Since 1 June heating degree days 1 7  
Since 1 July heating degree days 0 0  
Cooling Degree Days 16 13  
Month to date cooling degree days 466 405  
Year to date cooling degree days 1498 1359  
Since 1 June cooling degree days 1266 1231  
Growing Degree Days 30 (Base 50)    
Moisture  
Dew Point 67 °F    
Average Humidity 65    
Maximum Humidity 84    
Minimum Humidity 46    
Precipitation  
Precipitation T in 0.11 in 1.73 in (1968)
Month to date precipitation 2.31 3.47  
Year to date precipitation 18.62 23.86  
Sea Level Pressure  
Sea Level Pressure 30.02 in    
Wind  
Wind Speed 6 mph (SE)    
Max Wind Speed 17 mph    
Max Gust Speed 22 mph    
Visibility 10 miles    
Events Thunderstorm    
T = Trace of Precipitation, MM = Missing Value Source: NWS Daily Summary

Daily Weather History Graph

Daily Weather History Graph

Search for Another Location

Airport or City:

Trip Planner

Search our weather history database for the weather conditions in past years. The results will help you decide how hot, cold, wet, or windy it might be!

Date:

Astronomy

Aug. 27, 2014 Rise Set
Actual Time 6:55 AM CDT 8:08 PM CDT
Civil Twilight 6:27 AM CDT 8:35 PM CDT
Nautical Twilight 5:54 AM CDT 9:08 PM CDT
Astronomical Twilight 5:20 AM CDT 9:42 PM CDT
Moon 8:50 AM CDT (8/27) 9:03 PM CDT (8/27)
Length of Visible Light 14h 08m
Length of Day
13h 13m
Waxing Crescent, 4% of the Moon is Illuminated
Aug 27
Waxing Crescent
Sep 2
First Quarter
Sep 8
Full
Sep 15
Last Quarter
Sep 24
New

Hourly Weather History & Observations

Time (CDT) Temp. Heat Index Dew Point Humidity Pressure Visibility Wind Dir Wind Speed Gust Speed Precip Events Conditions
12:53 AM 78.1 °F - 66.9 °F 68% 30.03 in 10.0 mi ESE 4.6 mph - N/A   Mostly Cloudy
1:13 AM 78.1 °F - 68.0 °F 71% 30.06 in 10.0 mi ESE 4.6 mph - N/A Thunderstorm Mostly Cloudy
1:32 AM 78.1 °F - 66.9 °F 68% 30.07 in 10.0 mi ESE 4.6 mph - N/A Thunderstorm Thunderstorm
1:53 AM 77.0 °F - 68.0 °F 74% 30.03 in 3.0 mi North 8.1 mph - N/A Thunderstorm Unknown
2:26 AM 79.0 °F - 66.9 °F 66% 30.07 in 10.0 mi East 4.6 mph - N/A Thunderstorm Mostly Cloudy
2:35 AM 79.0 °F - 66.9 °F 66% 30.07 in 10.0 mi East 4.6 mph - N/A   Overcast
2:53 AM 79.0 °F - 66.9 °F 66% 30.02 in 10.0 mi ESE 5.8 mph - N/A   Overcast
3:53 AM 75.9 °F - 68.0 °F 76% 30.01 in 10.0 mi SE 6.9 mph - N/A   Clear
4:53 AM 75.9 °F - 68.0 °F 76% 30.02 in 10.0 mi SW 4.6 mph - N/A   Overcast
5:53 AM 73.9 °F - 68.0 °F 82% 30.02 in 10.0 mi SSW 3.5 mph - N/A   Partly Cloudy
6:53 AM 75.9 °F - 68.0 °F 76% 30.03 in 10.0 mi WSW 5.8 mph - N/A   Mostly Cloudy
7:53 AM 79.0 °F - 66.9 °F 66% 30.06 in 10.0 mi WSW 6.9 mph - N/A   Mostly Cloudy
8:53 AM 79.0 °F - 66.0 °F 64% 30.06 in 10.0 mi WSW 12.7 mph - N/A   Partly Cloudy
9:53 AM 84.2 °F 86.6 °F 66.2 °F 55% 30.10 in 10.0 mi WSW 12.7 mph - N/A   Clear
10:53 AM 84.0 °F 85.8 °F 64.9 °F 53% 30.07 in 10.0 mi West 6.9 mph - N/A   Clear
11:53 AM 84.0 °F 85.8 °F 64.9 °F 53% 30.07 in 10.0 mi Calm Calm - N/A   Clear
12:53 PM 87.1 °F 88.9 °F 64.9 °F 48% 30.06 in 10.0 mi Calm Calm - N/A   Clear
1:53 PM 87.8 °F 89.4 °F 64.4 °F 46% 30.09 in 10.0 mi Variable 3.5 mph - N/A   Clear
2:53 PM 86.0 °F 87.6 °F 64.9 °F 49% 30.03 in 10.0 mi NW 5.8 mph - N/A   Clear
3:53 PM 87.1 °F 89.2 °F 66.0 °F 49% 30.01 in 10.0 mi WNW 5.8 mph - N/A   Clear
4:53 PM 86.0 °F 88.2 °F 66.0 °F 51% 29.97 in 10.0 mi NNW 5.8 mph - N/A   Mostly Cloudy
5:53 PM 86.0 °F 88.2 °F 66.0 °F 51% 29.96 in 10.0 mi Calm Calm - N/A   Overcast
6:53 PM 84.9 °F 88.2 °F 68.0 °F 57% 29.95 in 10.0 mi Calm Calm - N/A   Scattered Clouds
7:53 PM 84.9 °F 87.6 °F 66.9 °F 55% 29.94 in 10.0 mi East 3.5 mph - N/A   Partly Cloudy
8:53 PM 84.9 °F 87.6 °F 66.9 °F 55% 29.94 in 10.0 mi East 6.9 mph - N/A   Overcast
9:53 PM 84.0 °F 85.8 °F 64.9 °F 53% 29.94 in 10.0 mi ESE 6.9 mph - N/A   Mostly Cloudy
10:53 PM 82.9 °F 85.0 °F 66.0 °F 56% 29.93 in 10.0 mi ESE 8.1 mph - N/A   Overcast
11:53 PM 82.0 °F 84.1 °F 66.0 °F 58% 29.91 in 10.0 mi SE 8.1 mph - N/A   Mostly Cloudy